Tracking 31027 objects as of 19-Jul-2025
HD Live streaming from Space Station
objects crossing your sky now

STARLINK-1771

Track STARLINK-1771 now!
10-day predictions
STARLINK-1771 is classified as:


NORAD ID: 46384
Int'l Code: 2020-062BM
Perigee: 553.4 km
Apogee: 555.3 km
Inclination: 53.1 °
Period: 95.6 minutes
Semi major axis: 6925 km
RCS: Unknown
Launch date: September 3, 2020
Source: United States (US)
Launch site: AIR FORCE EASTERN TEST RANGE (AFETR)
Your satellite tracking list
FLOCK 4X 28
Track 1 satellite(s)




NASA's NSSDC Master Catalog

Two Line Element Set (TLE):
1 46384U 20062BM  25199.67820974 -.00000062  00000-0  14748-4 0  9991
2 46384  53.0576 347.1416 0001350  88.2293 271.8850 15.06402001269210
Source of the keplerian elements: AFSPC